Location: Austin, TX
(30.3000°N, 97.7500°W)
Time: 17:46:57
(UTC-05:00)

Daily predictions for brighter satellites

Satellite Brightness Start Highest point End
(mag) Time Altitude Azimuth Time Altitude Azimuth Time Altitude Azimuth
OAO 2 Rocket 3.5 20:17:47 10° WNW 20:23:04 80° NNE 20:28:15 10° ESE
Cosmos 2278 Rocket 3.8 20:20:28 10° NNE 20:24:14 18° ENE 20:27:58 10° ESE
FengYun 1-2 T 4.3 20:21:01 10° SSE 20:26:35 73° ENE 20:32:13 10° N
OAO 3 Copernicus 4.4 20:25:56 10° WSW 20:30:59 84° NNW 20:36:02 10° ENE
ASTRO E2 2.7 20:28:17 10° WSW 20:32:17 76° SSE 20:36:19 10° E
Hubble Space Telescope 2.7 20:34:29 10° S 20:36:42 14° SSE 20:38:53 10° ESE
Envisat 3.4 20:32:39 10° SE 20:37:26 44° ENE 20:42:14 10° N
H-2A R/B 3.8 20:34:38 10° S 20:38:13 47° W 20:41:52 10° NNW
Cosmos 1825 4.3 20:37:47 10° ENE 20:38:36 11° ENE 20:39:26 10° E
Cosmos 1328 Rocket 3.7 20:36:30 10° SSE 20:40:46 51° E 20:45:04 10° NNE
In-Cosmos 22 Rocket 4.2 20:36:01 10° N 20:41:25 81° W 20:46:42 10° S
Nadezhda 3 Rocket 4.1 20:36:37 10° N 20:42:52 60° E 20:49:08 10° SSE
OAO 3 Rocket 4.4 20:39:40 10° SSW 20:43:24 23° SSE 20:46:40 12° E
Fermi 4.5 20:39:57 10° WSW 20:43:51 41° S 20:47:16 13° ESE
FREGAT/IRIS 2.8 20:42:00 10° S 20:44:54 69° W 20:47:50 10° NNW
Cosmos 1805 Rocket 3.9 20:40:45 10° NNW 20:45:03 70° W 20:49:21 10° S
Cosmos 2228 Rocket 3.6 20:42:16 10° SSE 20:46:18 38° E 20:50:22 10° NNE
Cosmos 2056 Rocket 4.1 20:48:21 10° SSE 20:53:16 37° E 20:58:12 10° NE
Meteor 2-15 4.5 20:47:36 10° N 20:53:45 89° W 20:59:49 10° S
Cosmos 2251 Rocket 3.8 20:48:52 10° NNW 20:54:13 76° WSW 20:59:32 10° S
Sakura Rocket 3.3 20:49:43 10° W 20:55:28 74° S 20:58:50 17° E
SL-16 R/B 2.7 20:55:39 10° SSE 21:00:44 36° ESE 21:05:51 10° NE
Cosmos 1408 3.8 20:58:06 10° NNE 21:01:09 24° E 21:02:17 20° ESE
HJ-1C 3.9 20:57:53 10° S 21:01:11 60° W 21:04:30 10° NNW
Cosmos 1470 Rocket 4.0 20:59:52 10° N 21:04:03 40° E 21:07:10 16° SE
Gblst 52 Del rocket 4.5 21:03:11 10° SSW 21:08:41 43° SE 21:13:51 10° ENE
Cosmos 1624 Rocket 4.0 21:04:33 10° S 21:09:37 57° ESE 21:14:42 10° NNE
Cosmos 220 Rocket 3.9 21:05:54 10° NNW 21:10:12 76° ENE 21:13:32 16° SSE
ATLAS 2AS CENTAUR R/B 2.9 21:05:24 10° NNW 21:13:08 71° ENE 21:18:33 18° SE
ERS-2 2.0 21:10:25 14° SSE 21:13:28 80° ENE 21:17:09 10° N
YAOGAN 6 2.6 21:11:29 21° SSE 21:13:39 56° ENE 21:17:13 10° N
Cosmos 2098 Rocket 3.6 21:09:10 10° SSE 21:13:40 36° E 21:17:18 10° NNE
Resurs 01 Rocket 1.9 21:12:35 21° SE 21:15:13 46° ENE 21:19:28 10° N
Cosmos 2344 3.9 21:08:13 10° S 21:15:20 38° ESE 21:22:20 10° NE
Cosmos 1151 Rocket 2.9 21:12:13 10° S 21:16:28 89° NW 21:20:44 10° N
Cosmos 1959 Rocket 4.5 21:12:34 10° S 21:18:36 59° E 21:24:35 10° NNE
SAR-Lupe-3 4.5 21:15:52 10° NNE 21:19:24 60° ESE 21:22:36 12° S
Spot 2 Rocket 4.0 21:17:25 24° SE 21:19:57 41° ENE 21:24:42 10° N
deb Centaur AC-2 4.3 21:21:52 10° W 21:26:03 52° SSW 21:27:41 33° SE
Cosmos 1455 4.3 21:23:44 10° SW 21:27:04 28° W 21:30:26 10° NNW
SJ-6B 4.2 21:24:17 10° SSW 21:28:03 38° W 21:31:46 10° NNW
Stardust Del rocket 4.5 21:27:40 10° SW 21:30:40 29° SSE 21:30:59 29° SSE
Cosmos 1933 Rocket 3.4 21:27:58 10° N 21:32:20 75° E 21:34:21 31° SSE
Meteor 2-3 Rocket 4.2 21:29:20 10° NNW 21:34:53 62° W 21:40:28 10° S
Cosmos 1869 3.2 21:31:23 13° S 21:35:00 89° W 21:39:02 10° N
Cosmos 1441 Rocket 4.5 21:37:09 25° NE 21:37:09 25° NE 21:39:09 10° NNE
BREEZE-M DEB (TANK) 4.1 21:35:37 10° NNW 21:37:32 18° NNE 21:37:32 18° NNE
Resurs 1-3 3.6 21:38:37 28° S 21:40:56 79° WSW 21:45:19 10° NNW
Cosmos 2218 Rocket 4.1 21:37:20 10° S 21:43:40 83° W 21:50:06 10° N
Cosmos 1939 Rocket 3.5 21:44:30 25° SSW 21:46:26 51° W 21:50:15 10° NNW
USA 186 3.7 21:47:46 19° W 21:47:46 19° W 21:49:16 10° NW
SL-08 R/B 4.4 21:43:43 10° S 21:50:01 87° E 21:56:28 10° N
Cosmos 2366 rocket 4.0 21:44:36 10° S 21:50:48 80° W 21:57:06 10° N
Cosmos 2237 Rocket 4.4 21:47:38 10° WSW 21:52:15 26° WNW 21:56:54 10° N
Cosmos 407 Rocket 3.5 21:59:27 10° N 22:04:28 60° ENE 22:04:28 60° ENE
NOAA 11 4.2 22:03:16 43° S 22:05:09 79° WSW 22:10:40 10° NNW
OAO 2 Rocket 4.3 22:03:01 10° W 22:07:41 33° SSW 22:07:53 33° SSW
Cosmos 2278 Rocket 2.9 22:03:05 10° NNW 22:08:32 50° WSW 22:10:53 31° SSW
Cosmos 405 Rocket 3.8 22:10:36 38° N 22:10:36 38° N 22:13:07 10° N
Cosmos 1339 Rocket 4.4 22:05:37 10° N 22:11:46 87° W 22:13:37 48° S
BREEZE-M DEB (TANK) 4.1 22:07:57 10° SW 22:12:03 69° SE 22:26:42 10° NE
ASTRO E2 3.5 22:08:52 10° W 22:11:55 49° WNW 22:11:55 49° WNW
Cosmos 1825 3.7 22:10:51 10° NNW 22:14:13 31° W 22:14:41 30° WSW
Hubble Space Telescope 3.1 22:13:35 10° SW 22:14:24 15° SW 22:14:24 15° SW
ATLAS 2A CENTAUR R/B 3.9 21:56:44 10° WSW 22:18:24 71° S 22:22:31 44° ESE
H-2A R/B 2.8 22:23:56 40° NNE 22:23:56 40° NNE 22:27:23 10° N
USA 81 4.0 22:17:55 10° N 22:22:59 83° NNW 22:22:59 83° NNW
OAO 3 Rocket 4.4 22:21:50 10° WSW 22:24:33 34° WSW 22:24:33 34° WSW
MetOp-B 4.4 22:29:17 57° NNE 22:29:17 57° NNE 22:33:41 10° N
CZ-4C R/B 2.2 22:29:40 57° WSW 22:30:27 66° WNW 22:35:59 10° NNE
ARGOS 3.3 22:33:06 69° N 22:33:06 69° N 22:37:45 10° NNW
Aurora 2 Rocket 4.3 22:27:43 10° WSW 22:34:02 42° SSW 22:34:02 42° SSW
Cosmos 1452 Rocket 4.0 22:35:18 55° W 22:35:47 57° WNW 22:40:58 10° N
SL-16 R/B 4.3 22:40:21 10° WSW 22:44:51 24° WNW 22:49:21 10° N
Resurs 01 Rocket 4.5 22:50:35 10° WSW 22:51:51 11° W 22:53:07 10° WNW
Terra 4.4 23:18:59 14° N 23:18:59 14° N 23:19:43 10° N
Cosmos 2369 Rocket 4.1 23:20:07 10° N 23:22:25 24° N 23:22:25 24° N
USA 267 4.4 23:29:46 10° NNE 23:33:29 35° NNE 23:33:29 35° NNE
ATLAS 5 CENTAUR R/B 4.1 23:37:26 10° NNW 23:40:22 27° N 23:40:22 27° N
